STARLINK-3878 (52479 NORAD) Tracking and Keplerian Element Data

This shows tracking and keplerian element data for the satellite.

Feedback or suggestion? Click here.




ElementValue
Catalog52479
NameSTARLINK-3878
Epoch Orbit1069
Epoch Day193.25001157
Epoch Year2022
RAAN295.4849
Inclination53.2175
Eccentricity0.0003061
Argument of Perigee9.2919
Mean Anonmoly98.9584
Mean Motion15.73067958
Decay Rate-0.01021022
L11 52479U 22049AE 22193.25001157 -.01021022 00000+0 -80958-2 0 9993
L22 52479 53.2175 295.4849 0003061 9.2919 98.9584 15.73067958 10693

Live tracking and technical data element details for STARLINK-3878 (NORAD 52479). STARLINK-3878 can be tracked NOW for your location showing map with azimuth and elevation plus other details from your city location.

Track the satellite on the map from your city or location and see movement details for azimuth, elevation, latitude, longitude, range, height, and movement on the map or in text.







IsCatalogInMostPopularTable: catalog: 52479, numindb: 7
Update: records affected: 1



GetName: 52479 STARLINK-3878

Hit Count: updated at: Sun, 14 Aug 2022 00:04:33 GMT